BEIDOU-2 G5

Last updated on Mon Oct 14 2024 00:02:39 GMT+0000 (Coordinated Universal Time)

1 38091U 12008A 24287.48978425 .00000056 00000+0 00000+0 0 9991 2 38091 2.0474 70.6260 0007702 220.9214 326.1478 1.00274987 46343
UTC large
Height (km)
Speed (km/s)
/
Latitude / Longitude
Inclination (degrees)
Orbital Period (minutes)
Azimuth
Elevation
Range (km)
Doppler Factor

Next 0 passes for location: London (51.5072 / 0.1276)

Sorry there are no passes over London.